User: anonymous   Login
Location: Unspecified
(0.0000°N, 0.0000°E)
Time: 18:23:46
(UTC+00:00)
Language:

Alouette 2 - Orbit

View from above orbital plane
View from above orbital plane
View from above satellite
View from above satellite

Ground track
Ground track

The orbit data is extracted from the following two-line orbital elements,

1  1804U 65098A   17291.84092184 +.00000188 +00000-0 +56000-4 0  9999
2  1804 079.8000 077.9952 1343569 143.9814 225.9854 12.25305751291568
Epoch (UTC): 18 October 2017 20:10:55
Eccentricity: 0.1343569
inclination: 79.8000°
perigee height: 501 km
apogee height: 2637 km
right ascension of ascending node: 77.9952°
argument of perigee: 143.9814°
revolutions per day: 12.25305751
mean anomaly at epoch: 225.9854°
orbit number at epoch: 29156

The dashed part of the orbit path shows where the satellite is in the earth's shadow,  

DLR